Location: Buchreddip?lem
(16.9499°N, 80.3412°E)
Time: 21:39:10
(UTC+00:00)

Daily predictions for brighter satellites

Satellite Brightness Start Highest point End
(mag) Time Altitude Azimuth Time Altitude Azimuth Time Altitude Azimuth
Cosmos 1470 Rocket 3.6 13:07:05 10° S 13:11:30 84° E 13:15:58 10° N
Fermi 3.7 13:07:47 10° WSW 13:11:53 78° SSE 13:15:58 10° ENE
Cosmos 1605 Rocket 4.0 13:06:00 10° N 13:12:19 71° E 13:18:34 10° S
Cosmos 2237 4.2 13:06:56 10° N 13:12:35 64° ENE 13:18:11 10° SSE
IUS-13 SRM-1 3.6 13:13:53 10° NW 13:15:00 14° N 13:16:15 10° NNE
ISO 4.1 13:07:31 10° WSW 13:17:03 30° SSW 13:20:21 10° SE
GPS 2-15 Rocket1 3.8 13:16:02 10° W 13:20:28 46° SSW 13:24:54 10° SE
Meteor 1-13 Rocket 4.3 13:15:10 10° N 13:21:08 80° E 13:27:01 10° S
MINOTAUR 4 R/B 3.9 13:20:30 10° NNE 13:23:52 58° ESE 13:27:12 10° S
Cosmos 1626 3.6 13:22:19 10° NE 13:24:34 16° E 13:26:42 10° ESE
Cosmos 1452 Rocket 3.9 13:20:13 10° S 13:25:05 40° E 13:29:58 10° NNE
Okean O Rocket 3.1 13:24:39 10° ESE 13:27:33 17° ENE 13:30:27 10° NNE
H-2A R/B 2.1 13:26:34 10° NW 13:29:31 53° NE 13:37:11 13° ESE
YAOGAN 1 2.8 13:26:23 10° SSE 13:30:30 45° ENE 13:34:36 10° N
NOSS 3-4 (A) 4.2 13:26:15 10° SSE 13:30:37 23° ESE 13:34:57 10° ENE
NOSS 3-4 (C) 4.2 13:26:26 10° SSE 13:30:45 23° ESE 13:34:59 10° ENE
SL-4 R/B 2.3 13:30:51 10° SSW 13:35:25 69° SE 13:40:04 10° NE
Cosmos 2322 Rocket 2.2 13:33:13 10° NNW 13:38:55 88° WSW 13:44:37 10° SSE
CZ-4B R/B 3.6 13:34:22 10° SE 13:39:40 43° ENE 13:44:59 10° N
Spot 1 4.4 13:35:44 10° NNE 13:40:49 75° ESE 13:45:57 10° S
USA 267 4.5 13:39:27 15° E 13:42:47 22° NE 13:47:37 10° N
BlueWalker 3 3.0 13:41:22 10° S 13:44:36 25° ESE 13:45:14 24° ESE
Cosmos 2251 Rocket 3.8 13:42:36 10° NNW 13:47:48 71° WSW 13:52:58 10° S
Cosmos 1190 Rocket 4.3 13:45:35 10° N 13:50:31 43° ENE 13:54:45 14° SE
MOS 1-B 4.4 13:45:10 10° SSE 13:50:51 59° ENE 13:56:32 10° N
FUSE 3.9 13:50:55 10° WSW 13:56:17 77° SSE 13:59:09 28° ENE
Cosmos 1140 Rocket 4.0 13:52:28 10° NNW 13:57:36 62° WSW 14:02:44 10° S
KORONAS-FOTON 3.9 13:55:36 10° N 13:59:18 49° E 14:00:48 30° SE
Cosmos 1842 3.9 13:57:33 10° NNW 14:01:15 53° W 14:04:56 10° S
Centaur AC-64 3.4 13:57:51 10° W 14:02:12 28° SW 14:03:13 21° S
Cosmos 1954 Rocket 4.5 13:58:52 10° N 14:03:44 38° ENE 14:04:48 34° ESE
Cosmos 2219 Rocket 2.7 13:59:22 10° N 14:04:36 38° ENE 14:05:52 34° E
BREEZE-M DEB (TANK) 2.9 14:02:00 10° SW 14:04:50 53° NW 14:06:30 21° NNE
Cosmos 1805 3.0 14:01:20 10° S 14:05:06 68° E 14:08:52 10° N
Lacrosse 5 rocket 3.8 14:01:51 10° WSW 14:05:27 24° NW 14:08:58 10° N
Atlas Centaur 2 1.9 14:01:03 10° SW 14:05:34 59° SSE 14:07:31 37° E
Cosmos 2333 Rocket 2.1 14:00:01 10° N 14:05:44 67° ENE 14:10:07 17° SSE
Cosmos 2297 Rocket 2.0 14:00:49 10° S 14:06:25 76° ESE 14:12:03 10° NNE
Okean 3 3.3 14:03:38 10° N 14:07:51 76° E 14:11:48 12° S
Cosmos 1975 4.2 14:04:11 10° SSW 14:07:51 39° W 14:11:32 10° NNW
SJ-6B 4.1 14:10:23 25° NNE 14:10:23 25° NNE 14:12:24 10° N
GPS 2-12 Rocket1 3.2 14:05:43 10° W 14:10:05 59° SSW 14:11:11 44° SE
Sakura Rocket 3.7 14:07:49 10° W 14:11:10 35° SSW 14:12:03 30° S
Cosmos 1869 Rocket 3.8 14:08:11 10° S 14:12:28 69° W 14:16:45 10° N
Okean 1-7 2.9 14:09:03 10° N 14:13:22 88° ENE 14:17:12 13° S
ATLAS 3B CENTAUR R/B 0.9 14:10:02 10° WSW 14:13:00 60° SW 14:13:00 60° SW
Blok-L 4.3 14:01:21 10° SSW 14:13:57 80° WNW 14:18:00 10° NNE
Cosmos 1459 Rocket 3.8 14:08:49 10° N 14:14:52 76° E 14:20:59 10° S
FALCON 9 R/B 3.5 14:10:27 10° NW 14:15:38 51° NNE 14:24:19 28° E
GPS 2-04 Rocket1 3.7 14:12:46 10° SW 14:14:58 30° S 14:14:58 30° S
COSMOS 2428 4.0 14:12:06 10° NNE 14:15:11 23° NE 14:15:11 23° NE
Cosmos 1707 3.0 14:13:42 10° NNW 14:17:25 63° W 14:20:19 16° S
Cosmos 1726 2.1 14:14:27 10° S 14:17:54 72° W 14:21:22 10° N
CENTAUR R/B 4.2 14:12:24 10° N 14:19:25 26° ENE 14:19:44 25° ENE
OAO 2 Rocket 3.3 14:14:29 10° NW 14:19:38 76° NNE 14:20:37 57° E
BREEZE-M DEB (TANK) 4.3 14:12:37 10° SSW 14:21:29 39° SE 14:21:34 39° SE
Cosmos 2227 Rocket 2.1 14:16:39 10° S 14:22:11 58° ESE 14:24:12 37° NE
Cosmos 1674 2.8 14:19:28 10° N 14:23:10 70° W 14:23:34 62° SW
Cosmos 1725 Rocket 4.0 14:18:20 10° N 14:24:19 50° E 14:24:53 49° ESE
Tiangong -0.4 14:23:17 10° NW 14:25:02 31° NW 14:25:02 31° NW
Feng Yun 1-1 Rocket 4.0 14:23:37 23° SSE 14:27:07 85° ENE 14:32:39 10° NNW
IGS 5A 3.7 14:27:45 42° SSW 14:28:58 66° WSW 14:33:02 10° NNW
Cosmos 2360 Rocket 3.7 14:31:22 10° NW 14:36:25 34° WSW 14:41:26 10° SSW
Cosmos 1802 Rocket 4.0 14:34:03 10° N 14:40:22 82° W 14:46:23 12° S
CZ-4 R/B 3.1 14:39:13 16° SSW 14:41:30 29° W 14:44:50 10° NW
GPS 2-14 Rocket1 4.4 14:38:24 10° WNW 14:40:19 28° WNW 14:40:19 28° WNW
Milstar 3 Cent rocket 3.7 14:41:35 10° WNW 14:49:17 80° NNE 14:53:39 49° ESE
Cosmos 2016 Rocket 4.0 14:48:04 10° N 14:54:10 75° W 14:55:22 58° SSW
Centaur AC-42 3.6 14:50:25 10° WNW 14:55:47 73° N 15:00:11 46° E
Centaur AC-42 3.6 14:50:25 10° WNW 14:55:47 73° N 15:00:10 47° E
Centaur AC-42 3.6 14:50:25 10° WNW 14:55:47 73° N 15:00:10 46° E
CSL-04 Rocket 4.5 15:00:55 46° NNW 15:00:55 46° NNW 15:04:43 10° NNW
Okean O Rocket 3.8 15:01:45 18° SW 15:03:36 23° W 15:07:06 10° NW
Intelsat 5-1 Rocket 4.2 15:14:11 10° WNW 15:20:21 59° NNE 15:21:02 58° NNE
USA 267 3.8 15:26:49 52° WNW 15:26:49 52° WNW 15:31:51 10° NW
CENTAUR R/B 4.3 16:01:39 10° NW 16:06:57 39° NW 16:06:57 39° NW
ATLAS 5 CENTAUR R/B 4.2 15:56:03 10° WNW 16:30:50 62° W 16:30:50 62° W
Atlas Centaur 2 4.3 21:30:04 34° E 21:30:04 34° E 21:34:30 10° ESE
USA 234 3.3 22:17:25 10° NE 22:23:57 70° SE 22:24:07 70° SE
Lacrosse 5 rocket 4.1 22:33:42 11° NE 22:34:35 12° NE 22:35:58 10° ENE
Meteor 2-20 Rocket 4.4 22:28:34 10° N 22:34:39 80° E 22:40:44 10° S
Centaur D-1AR AC-40 3.7 22:40:11 28° S 22:41:56 34° SE 22:55:11 10° E
CZ-3 R/B 3.8 22:09:24 10° WNW 22:54:03 85° NNE 23:03:43 10° ESE
GPS 2-17 Rocket1 3.2 22:58:15 62° NNE 22:58:15 62° NNE 23:02:28 10° E
Cosmos 1295 Rocket 4.4 22:59:02 38° SSW 23:01:29 65° W 23:07:45 10° N
GEOS 3 Rocket 4.2 22:58:34 10° SE 23:03:32 56° ENE 23:08:36 10° NNW
COSMOS 2455 3.4 22:58:25 11° S 23:04:05 58° ESE 23:09:58 10° NNE
Cosmos 1607 3.8 23:01:28 35° SSW 23:04:15 89° WNW 23:10:23 10° NNE
Cosmos 1461 3.9 23:07:33 33° NNW 23:07:33 33° NNW 23:10:19 10° N
Helios 1B rocket 2.9 23:05:10 10° N 23:08:04 45° NNW 23:08:04 45° NNW
H-2A R/B 4.3 23:07:41 10° NE 23:11:32 23° E 23:15:23 10° SSE
Atlas Centaur 2 3.2 23:12:33 35° W 23:16:03 55° SSW 23:23:46 10° SE
Cosmos 2327 Rocket 4.4 23:10:15 10° SSW 23:16:34 69° W 23:22:57 10° N
Cosmos 839 Rocket 4.3 23:14:00 28° SW 23:17:40 62° WNW 23:25:40 10° NNE
NOAA 11 4.4 23:13:41 10° N 23:18:50 46° WNW 23:20:41 34° WSW
ARIANE 5 R/B 3.2 23:14:39 10° N 23:18:45 33° WNW 23:18:45 33° WNW
Meteor 2-6 Rocket 4.4 23:17:15 21° SSW 23:20:58 51° W 23:26:43 10° N
Cosmos 405 Rocket 3.8 23:22:04 10° SSE 23:25:34 43° E 23:29:01 10° NNE
Spot 4 Rocket 3.9 23:20:51 10° N 23:25:59 79° WNW 23:31:07 10° SSW
Centaur AC-112 3.9 23:28:20 10° N 23:28:20 10° N 23:28:29 10° N
Cosmos 1500 Rocket 3.4 23:26:15 10° N 23:30:33 86° W 23:34:53 10° S
Hubble Space Telescope 1.0 23:29:20 29° NW 23:31:15 62° NNE 23:35:15 10° ESE
SL-08 R/B 4.2 23:27:11 10° SSE 23:31:59 54° ENE 23:36:45 10° N
Cosmos 1805 Rocket 3.8 23:32:14 10° N 23:36:40 72° E 23:41:05 10° S
Aurora 2 Rocket 2.9 23:37:57 26° WNW 23:39:37 39° NNW 23:42:49 10° NE
USA 32 4.1 23:37:40 10° N 23:42:55 84° E 23:48:10 10° S
Ariane H10+ 3.1 23:41:28 12° SSW 23:43:18 18° SSE 23:46:56 10° ESE
SL-4 R/B 1.7 23:39:43 11° NW 23:43:22 84° NE 23:46:53 10° SE
Cosmos 1939 Rocket 2.8 23:40:52 10° N 23:44:55 85° W 23:49:00 10° SSW
SWIFT 2.5 23:44:02 21° WNW 23:46:40 65° N 23:50:47 10° E
Meteor 1-27 Rocket 3.8 23:40:50 10° S 23:46:46 85° W 23:52:36 10° N
BlueWalker 3 4.2 23:45:27 10° N 23:48:37 24° NE 23:51:46 10° ESE
DELTA 2 DEB (DPAF) 4.5 23:45:38 10° SSE 23:49:57 67° ENE 23:54:16 10° N
